(°C)
10°
11°
12°
12°
11°
10°
(°C)
WSW
WSW
WSW
WSW
WSW
WSW
SW
(كم/سا)
24-49
24-49
24-48
23-46
20-43
16-35
13-31
(مم)
0
0
0
0
0
0
0
(%)
12
12
11
1
1
1
1

مستوى ارتفاع الشمس

/ 23.2°
sun-icon
UV 1
08:14
18:13
قمر المساء (222°)
19:32
12:21

متر ل55.03°شمال 82.6°شرق (UNNT)

الوقت الشروط درجة الحرارة/
نقطة الندى
رياح مجال رؤية حالة الطقس غيوم الضغط تغيير خام
MVFR 10°C / 6°C 230º 16kt >10km - Overcast 2200ft 1016 No Significant change. Runway 25: Damp, 26-50% contamination with <1mm, friction coefficient 0.60. Runway 16: deposit not reported, . UNNT 240600Z 23008MPS 9999 OVC022 10/06 Q1016 R25/150060 R16/////// NOSIG RMK QFE752/1002
MVFR 10°C / 6°C 240º 17kt >10km - Overcast 2100ft 1016 No Significant change. Runway 25: Damp, 26-50% contamination with <1mm, friction coefficient 0.60. Runway 16: deposit not reported, . UNNT 240530Z 24009MPS 9999 OVC021 10/06 Q1016 R25/150060 R16/////// NOSIG RMK QFE752/1002
MVFR 10°C / 6°C 230º 19kt >10km - Overcast 2200ft 1015 No Significant change. Runway 25: Damp, 26-50% contamination with <1mm, friction coefficient 0.60. Runway 16: deposit not reported, . UNNT 240500Z 23010MPS 9999 OVC022 10/06 Q1015 R25/150060 R16/////// NOSIG RMK QFE752/1002
MVFR 10°C / 6°C 220º 16kt >10km - Overcast 2100ft 1015 No Significant change. Runway 25: Damp, 26-50% contamination with <1mm, friction coefficient 0.60. Runway 16: deposit not reported, . UNNT 240430Z 22008MPS 9999 OVC021 10/06 Q1015 R25/150060 R16/////// NOSIG RMK QFE751/1002
MVFR 9°C / 6°C 230º 14kt >10km - Overcast 2100ft 1015 No Significant change. Runway 25: Damp, 26-50% contamination with <1mm, friction coefficient 0.60. Runway 16: deposit not reported, . UNNT 240400Z 23007MPS 9999 OVC021 09/06 Q1015 R25/150060 R16/////// NOSIG RMK QFE751/1002
MVFR 9°C / 5°C 220º 16kt >10km - Broken Clouds 2300ft 1015 No Significant change. Runway 25: Damp, 26-50% contamination with <1mm, friction coefficient 0.60. Runway 16: deposit not reported, . UNNT 240330Z 22008MPS 9999 BKN023 09/05 Q1015 R25/150060 R16/////// NOSIG RMK QFE751/1002
MVFR 9°C / 5°C 220º 17kt. Wind Shear present on Runway 25. >10km - Broken Clouds 2400ft 1015 No Significant change. Runway 25: Damp, 26-50% contamination with <1mm, friction coefficient 0.60. Runway 16: deposit not reported, . UNNT 240300Z 22009MPS 9999 BKN024 09/05 Q1015 WS R25 R25/150060 R16/////// NOSIG RMK QFE751/1002
MVFR 8°C / 4°C 220º 16kt >10km - Broken Clouds 2400ft 1015 No Significant change. Runway 25: Damp, 26-50% contamination with <1mm, friction coefficient 0.60. Runway 16: deposit not reported, . UNNT 240230Z 22008MPS 9999 BKN024 08/04 Q1015 R25/150060 R16/////// NOSIG RMK QFE751/1002
MVFR 8°C / 4°C 210º 16kt >10km - Broken Clouds 2500ft 1015 No Significant change. Runway 25: Wet or puddles, 51-100% contamination with 1mm, friction coefficient 0.50. Runway 16: deposit not reported, . UNNT 240200Z 21008MPS 9999 BKN025CB 08/04 Q1015 R25/290150 R16/////// NOSIG RMK QFE751/1002
MVFR 8°C / 4°C 220º 16kt >10km - Overcast 2500ft 1015 No Significant change. Runway 25: Wet or puddles, 51-100% contamination with 1mm, friction coefficient 0.50. Runway 16: deposit not reported, . UNNT 240130Z 22008MPS 9999 OVC025CB 08/04 Q1015 R25/290150 R16/////// NOSIG RMK QFE751/1002
MVFR 8°C / 4°C 220º 16kt >10km - Broken Clouds 2500ft 1015 No Significant change. Runway 25: Wet or puddles, 51-100% contamination with 1mm, friction coefficient 0.50. Runway 16: deposit not reported, . UNNT 240100Z 22008MPS 9999 BKN025 08/04 Q1015 R25/290150 R16/////// NOSIG RMK QFE751/1002
MVFR 8°C / 4°C 220º 16kt >10km - Broken Clouds 2500ft 1015 No Significant change. Runway 25: Wet or puddles, 51-100% contamination with 1mm, friction coefficient 0.50. Runway 16: Wet or puddles, 51-100% contamination with 1mm, friction coefficient 0.55. UNNT 240030Z 22008MPS 9999 BKN025 08/04 Q1015 R25/290150 R16/290155 NOSIG RMK QFE751/1002
MVFR 8°C / 4°C 220º 14kt >10km - Overcast 2600ft 1015 No Significant change. Runway 25: Wet or puddles, 51-100% contamination with 1mm, friction coefficient 0.50. Runway 16: Wet or puddles, 51-100% contamination with 1mm, friction coefficient 0.55. UNNT 240000Z 22007MPS 9999 OVC026 08/04 Q1015 R25/290150 R16/290155 NOSIG RMK QFE751/1002
MVFR 8°C / 4°C 210º 14kt >10km - Overcast 2600ft 1015 No Significant change. Runway 25: Wet or puddles, 51-100% contamination with 1mm, friction coefficient 0.50. Runway 16: Wet or puddles, 51-100% contamination with 1mm, friction coefficient 0.55. UNNT 232330Z 21007MPS 9999 OVC026 08/04 Q1015 R25/290150 R16/290155 NOSIG RMK QFE751/1002
MVFR 8°C / 4°C 220º 16kt >10km - Overcast 2700ft 1015 No Significant change. Runway 25: Wet or puddles, 51-100% contamination with 1mm, friction coefficient 0.50. Runway 16: Wet or puddles, 51-100% contamination with 1mm, friction coefficient 0.55. UNNT 232300Z 22008MPS 9999 OVC027 08/04 Q1015 R25/290150 R16/290155 NOSIG RMK QFE751/1001
MVFR 8°C / 4°C 210º 14kt >10km - Broken Clouds 2700ft 1014 No Significant change. Runway 25: Wet or puddles, 51-100% contamination with 1mm, friction coefficient 0.50. Runway 16: Wet or puddles, 51-100% contamination with 1mm, friction coefficient 0.55. UNNT 232230Z 21007MPS 9999 BKN027 08/04 Q1014 R25/290150 R16/290155 NOSIG RMK QFE751/1001
MVFR 7°C / 4°C 210º 14kt >10km - Broken Clouds 2700ft 1014 No Significant change. Runway 25: Wet or puddles, 51-100% contamination with 1mm, friction coefficient 0.50. Runway 16: Wet or puddles, 51-100% contamination with 1mm, friction coefficient 0.55. UNNT 232200Z 21007MPS 9999 BKN027 07/04 Q1014 R25/290150 R16/290155 NOSIG RMK QFE751/1001
MVFR 7°C / 5°C 210º 12kt >10km - Broken Clouds 2800ft 1014 No Significant change. Runway 25: Wet or puddles, 51-100% contamination with 1mm, friction coefficient 0.50. Runway 16: Wet or puddles, 51-100% contamination with 1mm, friction coefficient 0.55. UNNT 232130Z 21006MPS 9999 BKN028 07/05 Q1014 R25/290150 R16/290155 NOSIG RMK QFE751/1001
VFR 7°C / 5°C 220º 16kt >10km Light Showers Rain 3.00mm precipitation Vertical Visibility of 0ft. 1014 No Significant change. Runway 25: Wet or puddles, 51-100% contamination with 1mm, friction coefficient 0.50. Runway 16: Wet or puddles, 51-100% contamination with 1mm, friction coefficient 0.55. UNNT 232100Z 22008MPS 9999 -SHRA OVC034CB 07/05 Q1014 R25/290150 R16/290155 NOSIG RMK QFE751/1001
MVFR 7°C / 5°C 220º 17kt >10km Light Showers Rain 3.00mm precipitation Vertical Visibility of 0ft. 1014 No Significant change. Runway 25: Wet or puddles, 51-100% contamination with 1mm, friction coefficient 0.50. Runway 16: Wet or puddles, 51-100% contamination with 1mm, friction coefficient 0.55. UNNT 232030Z 22009MPS 9999 -SHRA OVC022CB 07/05 Q1014 R25/290150 R16/290155 NOSIG RMK QFE751/1001
MVFR 7°C / 5°C 220º 17kt 9000m Light Rain 1.00mm precipitation Vertical Visibility of 0ft. 1014 No Significant change. Runway 25: Wet or puddles, 51-100% contamination with 1mm, friction coefficient 0.50. Runway 16: Wet or puddles, 51-100% contamination with 1mm, friction coefficient 0.55. UNNT 232000Z 22009MPS 9000 -RA OVC026 07/05 Q1014 R25/290150 R16/290155 NOSIG RMK QFE751/1001
MVFR 7°C / 5°C 220º 16kt >10km Light Rain 1.00mm precipitation Vertical Visibility of 0ft. 1014 No Significant change. Runway 25: Wet or puddles, 51-100% contamination with 1mm, friction coefficient 0.50. Runway 16: Wet or puddles, 51-100% contamination with 1mm, friction coefficient 0.55. UNNT 231930Z 22008MPS 9999 -RA OVC026 07/05 Q1014 R25/290150 R16/290155 NOSIG RMK QFE751/1001
VFR 7°C / 5°C 220º 16kt >10km - Overcast 3300ft 1014 No Significant change. Runway 25: Wet or puddles, 51-100% contamination with 1mm, friction coefficient 0.50. Runway 16: Wet or puddles, 51-100% contamination with 1mm, friction coefficient 0.55. UNNT 231900Z 22008MPS 9999 OVC033 07/05 Q1014 R25/290150 R16/290155 NOSIG RMK QFE751/1001
VFR 7°C / 4°C 220º 16kt >10km - Overcast 3300ft 1014 No Significant change. Runway 25: Wet or puddles, 51-100% contamination with 1mm, friction coefficient 0.50. Runway 16: Wet or puddles, 51-100% contamination with 1mm, friction coefficient 0.55. UNNT 231830Z 22008MPS 9999 OVC033 07/04 Q1014 R25/290150 R16/290155 NOSIG RMK QFE751/1001

MVFR

10°C / 6°C

[أكثر]
رياح 230º 16kt
مجال رؤية >10km
حالة الطقس -
غيوم Overcast 2200ft
الضغط 1016
تغيير No Significant change. Runway 25: Damp, 26-50% contamination with <1mm, friction coefficient 0.60. Runway 16: deposit not reported, .
خام UNNT 240600Z 23008MPS 9999 OVC022 10/06 Q1016 R25/150060 R16/////// NOSIG RMK QFE752/1002

MVFR

10°C / 6°C

[أكثر]
رياح 240º 17kt
مجال رؤية >10km
حالة الطقس -
غيوم Overcast 2100ft
الضغط 1016
تغيير No Significant change. Runway 25: Damp, 26-50% contamination with <1mm, friction coefficient 0.60. Runway 16: deposit not reported, .
خام UNNT 240530Z 24009MPS 9999 OVC021 10/06 Q1016 R25/150060 R16/////// NOSIG RMK QFE752/1002

MVFR

10°C / 6°C

[أكثر]
رياح 230º 19kt
مجال رؤية >10km
حالة الطقس -
غيوم Overcast 2200ft
الضغط 1015
تغيير No Significant change. Runway 25: Damp, 26-50% contamination with <1mm, friction coefficient 0.60. Runway 16: deposit not reported, .
خام UNNT 240500Z 23010MPS 9999 OVC022 10/06 Q1015 R25/150060 R16/////// NOSIG RMK QFE752/1002

MVFR

10°C / 6°C

[أكثر]
رياح 220º 16kt
مجال رؤية >10km
حالة الطقس -
غيوم Overcast 2100ft
الضغط 1015
تغيير No Significant change. Runway 25: Damp, 26-50% contamination with <1mm, friction coefficient 0.60. Runway 16: deposit not reported, .
خام UNNT 240430Z 22008MPS 9999 OVC021 10/06 Q1015 R25/150060 R16/////// NOSIG RMK QFE751/1002

MVFR

9°C / 6°C

[أكثر]
رياح 230º 14kt
مجال رؤية >10km
حالة الطقس -
غيوم Overcast 2100ft
الضغط 1015
تغيير No Significant change. Runway 25: Damp, 26-50% contamination with <1mm, friction coefficient 0.60. Runway 16: deposit not reported, .
خام UNNT 240400Z 23007MPS 9999 OVC021 09/06 Q1015 R25/150060 R16/////// NOSIG RMK QFE751/1002

MVFR

9°C / 5°C

[أكثر]
رياح 220º 16kt
مجال رؤية >10km
حالة الطقس -
غيوم Broken Clouds 2300ft
الضغط 1015
تغيير No Significant change. Runway 25: Damp, 26-50% contamination with <1mm, friction coefficient 0.60. Runway 16: deposit not reported, .
خام UNNT 240330Z 22008MPS 9999 BKN023 09/05 Q1015 R25/150060 R16/////// NOSIG RMK QFE751/1002

MVFR

9°C / 5°C

[أكثر]
رياح 220º 17kt. Wind Shear present on Runway 25.
مجال رؤية >10km
حالة الطقس -
غيوم Broken Clouds 2400ft
الضغط 1015
تغيير No Significant change. Runway 25: Damp, 26-50% contamination with <1mm, friction coefficient 0.60. Runway 16: deposit not reported, .
خام UNNT 240300Z 22009MPS 9999 BKN024 09/05 Q1015 WS R25 R25/150060 R16/////// NOSIG RMK QFE751/1002

MVFR

8°C / 4°C

[أكثر]
رياح 220º 16kt
مجال رؤية >10km
حالة الطقس -
غيوم Broken Clouds 2400ft
الضغط 1015
تغيير No Significant change. Runway 25: Damp, 26-50% contamination with <1mm, friction coefficient 0.60. Runway 16: deposit not reported, .
خام UNNT 240230Z 22008MPS 9999 BKN024 08/04 Q1015 R25/150060 R16/////// NOSIG RMK QFE751/1002

MVFR

8°C / 4°C

[أكثر]
رياح 210º 16kt
مجال رؤية >10km
حالة الطقس -
غيوم Broken Clouds 2500ft
الضغط 1015
تغيير No Significant change. Runway 25: Wet or puddles, 51-100% contamination with 1mm, friction coefficient 0.50. Runway 16: deposit not reported, .
خام UNNT 240200Z 21008MPS 9999 BKN025CB 08/04 Q1015 R25/290150 R16/////// NOSIG RMK QFE751/1002

MVFR

8°C / 4°C

[أكثر]
رياح 220º 16kt
مجال رؤية >10km
حالة الطقس -
غيوم Overcast 2500ft
الضغط 1015
تغيير No Significant change. Runway 25: Wet or puddles, 51-100% contamination with 1mm, friction coefficient 0.50. Runway 16: deposit not reported, .
خام UNNT 240130Z 22008MPS 9999 OVC025CB 08/04 Q1015 R25/290150 R16/////// NOSIG RMK QFE751/1002

MVFR

8°C / 4°C

[أكثر]
رياح 220º 16kt
مجال رؤية >10km
حالة الطقس -
غيوم Broken Clouds 2500ft
الضغط 1015
تغيير No Significant change. Runway 25: Wet or puddles, 51-100% contamination with 1mm, friction coefficient 0.50. Runway 16: deposit not reported, .
خام UNNT 240100Z 22008MPS 9999 BKN025 08/04 Q1015 R25/290150 R16/////// NOSIG RMK QFE751/1002

MVFR

8°C / 4°C

[أكثر]
رياح 220º 16kt
مجال رؤية >10km
حالة الطقس -
غيوم Broken Clouds 2500ft
الضغط 1015
تغيير No Significant change. Runway 25: Wet or puddles, 51-100% contamination with 1mm, friction coefficient 0.50. Runway 16: Wet or puddles, 51-100% contamination with 1mm, friction coefficient 0.55.
خام UNNT 240030Z 22008MPS 9999 BKN025 08/04 Q1015 R25/290150 R16/290155 NOSIG RMK QFE751/1002

MVFR

8°C / 4°C

[أكثر]
رياح 220º 14kt
مجال رؤية >10km
حالة الطقس -
غيوم Overcast 2600ft
الضغط 1015
تغيير No Significant change. Runway 25: Wet or puddles, 51-100% contamination with 1mm, friction coefficient 0.50. Runway 16: Wet or puddles, 51-100% contamination with 1mm, friction coefficient 0.55.
خام UNNT 240000Z 22007MPS 9999 OVC026 08/04 Q1015 R25/290150 R16/290155 NOSIG RMK QFE751/1002

MVFR

8°C / 4°C

[أكثر]
رياح 210º 14kt
مجال رؤية >10km
حالة الطقس -
غيوم Overcast 2600ft
الضغط 1015
تغيير No Significant change. Runway 25: Wet or puddles, 51-100% contamination with 1mm, friction coefficient 0.50. Runway 16: Wet or puddles, 51-100% contamination with 1mm, friction coefficient 0.55.
خام UNNT 232330Z 21007MPS 9999 OVC026 08/04 Q1015 R25/290150 R16/290155 NOSIG RMK QFE751/1002

MVFR

8°C / 4°C

[أكثر]
رياح 220º 16kt
مجال رؤية >10km
حالة الطقس -
غيوم Overcast 2700ft
الضغط 1015
تغيير No Significant change. Runway 25: Wet or puddles, 51-100% contamination with 1mm, friction coefficient 0.50. Runway 16: Wet or puddles, 51-100% contamination with 1mm, friction coefficient 0.55.
خام UNNT 232300Z 22008MPS 9999 OVC027 08/04 Q1015 R25/290150 R16/290155 NOSIG RMK QFE751/1001

MVFR

8°C / 4°C

[أكثر]
رياح 210º 14kt
مجال رؤية >10km
حالة الطقس -
غيوم Broken Clouds 2700ft
الضغط 1014
تغيير No Significant change. Runway 25: Wet or puddles, 51-100% contamination with 1mm, friction coefficient 0.50. Runway 16: Wet or puddles, 51-100% contamination with 1mm, friction coefficient 0.55.
خام UNNT 232230Z 21007MPS 9999 BKN027 08/04 Q1014 R25/290150 R16/290155 NOSIG RMK QFE751/1001

MVFR

7°C / 4°C

[أكثر]
رياح 210º 14kt
مجال رؤية >10km
حالة الطقس -
غيوم Broken Clouds 2700ft
الضغط 1014
تغيير No Significant change. Runway 25: Wet or puddles, 51-100% contamination with 1mm, friction coefficient 0.50. Runway 16: Wet or puddles, 51-100% contamination with 1mm, friction coefficient 0.55.
خام UNNT 232200Z 21007MPS 9999 BKN027 07/04 Q1014 R25/290150 R16/290155 NOSIG RMK QFE751/1001

MVFR

7°C / 5°C

[أكثر]
رياح 210º 12kt
مجال رؤية >10km
حالة الطقس -
غيوم Broken Clouds 2800ft
الضغط 1014
تغيير No Significant change. Runway 25: Wet or puddles, 51-100% contamination with 1mm, friction coefficient 0.50. Runway 16: Wet or puddles, 51-100% contamination with 1mm, friction coefficient 0.55.
خام UNNT 232130Z 21006MPS 9999 BKN028 07/05 Q1014 R25/290150 R16/290155 NOSIG RMK QFE751/1001

VFR

7°C / 5°C

[أكثر]
رياح 220º 16kt
مجال رؤية >10km
حالة الطقس Light Showers Rain 3.00mm precipitation
غيوم Vertical Visibility of 0ft.
الضغط 1014
تغيير No Significant change. Runway 25: Wet or puddles, 51-100% contamination with 1mm, friction coefficient 0.50. Runway 16: Wet or puddles, 51-100% contamination with 1mm, friction coefficient 0.55.
خام UNNT 232100Z 22008MPS 9999 -SHRA OVC034CB 07/05 Q1014 R25/290150 R16/290155 NOSIG RMK QFE751/1001

MVFR

7°C / 5°C

[أكثر]
رياح 220º 17kt
مجال رؤية >10km
حالة الطقس Light Showers Rain 3.00mm precipitation
غيوم Vertical Visibility of 0ft.
الضغط 1014
تغيير No Significant change. Runway 25: Wet or puddles, 51-100% contamination with 1mm, friction coefficient 0.50. Runway 16: Wet or puddles, 51-100% contamination with 1mm, friction coefficient 0.55.
خام UNNT 232030Z 22009MPS 9999 -SHRA OVC022CB 07/05 Q1014 R25/290150 R16/290155 NOSIG RMK QFE751/1001

MVFR

7°C / 5°C

[أكثر]
رياح 220º 17kt
مجال رؤية 9000m
حالة الطقس Light Rain 1.00mm precipitation
غيوم Vertical Visibility of 0ft.
الضغط 1014
تغيير No Significant change. Runway 25: Wet or puddles, 51-100% contamination with 1mm, friction coefficient 0.50. Runway 16: Wet or puddles, 51-100% contamination with 1mm, friction coefficient 0.55.
خام UNNT 232000Z 22009MPS 9000 -RA OVC026 07/05 Q1014 R25/290150 R16/290155 NOSIG RMK QFE751/1001

MVFR

7°C / 5°C

[أكثر]
رياح 220º 16kt
مجال رؤية >10km
حالة الطقس Light Rain 1.00mm precipitation
غيوم Vertical Visibility of 0ft.
الضغط 1014
تغيير No Significant change. Runway 25: Wet or puddles, 51-100% contamination with 1mm, friction coefficient 0.50. Runway 16: Wet or puddles, 51-100% contamination with 1mm, friction coefficient 0.55.
خام UNNT 231930Z 22008MPS 9999 -RA OVC026 07/05 Q1014 R25/290150 R16/290155 NOSIG RMK QFE751/1001

VFR

7°C / 5°C

[أكثر]
رياح 220º 16kt
مجال رؤية >10km
حالة الطقس -
غيوم Overcast 3300ft
الضغط 1014
تغيير No Significant change. Runway 25: Wet or puddles, 51-100% contamination with 1mm, friction coefficient 0.50. Runway 16: Wet or puddles, 51-100% contamination with 1mm, friction coefficient 0.55.
خام UNNT 231900Z 22008MPS 9999 OVC033 07/05 Q1014 R25/290150 R16/290155 NOSIG RMK QFE751/1001

VFR

7°C / 4°C

[أكثر]
رياح 220º 16kt
مجال رؤية >10km
حالة الطقس -
غيوم Overcast 3300ft
الضغط 1014
تغيير No Significant change. Runway 25: Wet or puddles, 51-100% contamination with 1mm, friction coefficient 0.50. Runway 16: Wet or puddles, 51-100% contamination with 1mm, friction coefficient 0.55.
خام UNNT 231830Z 22008MPS 9999 OVC033 07/04 Q1014 R25/290150 R16/290155 NOSIG RMK QFE751/1001

انقر ل55.03°شمال 82.6°شرق (UNNT)

From till


From till Wind 230º 17kt. Gust 35kt. Visibility 10km or more. Broken Clouds 3000ft.
Becoming from till Wind 210º 12kt. Gust 27kt. Visibility 10km or more. Broken Clouds 3000ft.
Becoming from till Wind 210º 12kt. Gust 27kt. Visibility 10km or more. Broken Clouds 4000ft.

خام: TAF UNNT 240500Z 2406/2506 23009G18MPS 9999 BKN030CB BECMG 2410/2412 21006G14MPS BECMG 2502/2504 BKN040CB

صور الأقمار الصناعية الملتقطة و الأمطار حالياً ل55.03°شمال 82.6°شرق

المؤشر يدل على موقع 55.03°شمال 82.6°شرق. [أكثر]

تجمع صورة الأقمار الصناعية في الوقت الفعلي بين الضوء المرئي أثناء النهار والأشعة تحت الحمراء أثناء الليل. لا تبدو الصورة مظلمة ليلاً، لأن الأشعة تحت الحمراء يمكنها الكشف عن الاختلافات في درجة الحرارة. لسوء الحظ ، يصعب التمييز بين السحب المنخفضة والضباب ودرجات حرارة الأرض ، وبالتالي يمكن أن تكون الصور غير مرئية تقريبًا أثناء الليل. يتم تحديث صور الأقمار الصناعية Meteosat الخاصة بأوروبا في الوقت الفعلي كل 5 دقائق، بينما يتم تحديث صور GOES-16 / GOES-17 (أمريكا الشمالية والجنوبية) و Himawari (آسيا) كل 10 دقائق.

حقوق النسخ 2021 EUMETSAT / meteoblue. / حقوق النسخ 2021 meteoblue

رادار وهطول الأمطار التنبؤ الآني ل55.03°شمال 82.6°شرق

رذاذ
ضوء
معتدل
ثقيل
ثقيل جدا
وابل

مؤشر المكان يشير الى 55.03°شمال 82.6°شرق. تظهر في هذه الرسوم المتحركة هطول الامطار بالرادار للساعة الماضية, و توقعات 1h. رذاذ أو تساقط ثلوج خفيف قد يكون غير مرئي للرادار. كثافة هطول الأمطار مرمزة بالألوان وتتراوح من الأزرق الفاتح إلى البرتقالي.